Bloomington, IN

12:02 AM EDT on April 26, 2018 (GMT -0400)
Monroe County

Weather History for KBMG - May, 2013

Change the Weather History Date:

Saturday, May 25, 2013

  Actual Average Record
Temperature  
Mean Temperature 54 °F 65 °F  
Max Temperature 65 °F 77 °F 87 °F (2006)
Min Temperature 43 °F 54 °F 43 °F (2013)
Degree Days  
Heating Degree Days 11 3  
Month to date heating degree days 100 124  
Since 1 July heating degree days 5288 5238  
Cooling Degree Days 0 3  
Month to date cooling degree days 63 44  
Year to date cooling degree days 75 63  
Growing Degree Days 4 (Base 50)    
Moisture  
Dew Point 44 °F    
Average Humidity 66    
Maximum Humidity 92    
Minimum Humidity 40    
Precipitation  
Precipitation 0.06 in 0.16 in 1.08 in (2011)
Month to date precipitation 2.76 4.25  
Year to date precipitation 18.16 18.90  
Sea Level Pressure  
Sea Level Pressure 30.31 in    
Wind  
Wind Speed 2 mph (NNW)    
Max Wind Speed 13 mph    
Max Gust Speed 16 mph    
Visibility 10 miles    
Events Rain    
T = Trace of Precipitation, MM = Missing Value Source: NWS Daily Summary

Daily Weather History Graph

Daily Weather History Graph

Search for Another Location

Airport or City:

Astronomy

May. 25, 2013 Rise Set
Actual Time 6:25 AM EDT 9:01 PM EDT
Civil Twilight 5:54 AM EDT 9:32 PM EDT
Nautical Twilight 5:15 AM EDT 10:11 PM EDT
Astronomical Twilight 4:32 AM EDT 10:55 PM EDT
Moon 9:49 PM EDT (5/25) 6:51 AM EDT (5/25)
Length of Visible Light 15h 38m
Length of Day
14h 36m
Full, 100% of the Moon is Illuminated
May 25
Full
May 31
Last Quarter
Jun 8
New
Jun 16
First Quarter
Jun 23
Full

Hourly Weather History & Observations

Time (EDT) Temp. Dew Point Humidity Pressure Visibility Wind Dir Wind Speed Gust Speed Precip Events Conditions
12:53 AM 46.9 °F 43.0 °F 86% 30.31 in 10.0 mi Calm Calm - N/A   Clear
1:53 AM 44.1 °F 43.0 °F 96% 30.32 in 10.0 mi Calm Calm - N/A   Clear
2:53 AM 44.1 °F 43.0 °F 96% 30.32 in 10.0 mi Calm Calm - N/A   Clear
3:53 AM 44.1 °F 43.0 °F 96% 30.30 in 10.0 mi Calm Calm - N/A   Clear
4:53 AM 45.0 °F 42.1 °F 90% 30.30 in 10.0 mi Calm Calm - N/A   Clear
5:53 AM 44.1 °F 41.0 °F 89% 30.30 in 10.0 mi Calm Calm - N/A   Clear
6:53 AM 45.0 °F 42.1 °F 90% 30.30 in 10.0 mi Calm Calm - N/A   Clear
7:53 AM 48.0 °F 44.1 °F 86% 30.32 in 10.0 mi Calm Calm - N/A   Clear
8:53 AM 52.0 °F 43.0 °F 71% 30.35 in 10.0 mi Calm Calm - N/A   Clear
9:53 AM 54.0 °F 44.1 °F 69% 30.38 in 10.0 mi Calm Calm - N/A   Partly Cloudy
10:53 AM 57.9 °F 44.1 °F 60% 30.37 in 10.0 mi Calm Calm - N/A   Scattered Clouds
11:53 AM 61.0 °F 43.0 °F 52% 30.36 in 10.0 mi Calm Calm - N/A   Scattered Clouds
12:53 PM 63.0 °F 42.1 °F 46% 30.34 in 10.0 mi Calm Calm - 0.00 in   Scattered Clouds
1:53 PM 63.0 °F 39.0 °F 41% 30.35 in 10.0 mi West 4.6 mph - N/A   Mostly Cloudy
2:53 PM 64.0 °F 42.1 °F 45% 30.35 in 10.0 mi NW 3.5 mph - N/A   Overcast
3:53 PM 64.0 °F 39.0 °F 40% 30.31 in 10.0 mi WNW 3.5 mph - N/A   Overcast
4:53 PM 62.1 °F 44.1 °F 52% 30.30 in 10.0 mi West 3.5 mph - 0.00 in Rain Light Rain
5:53 PM 60.1 °F 48.0 °F 64% 30.27 in 10.0 mi Calm Calm - 0.00 in Rain Light Rain
6:53 PM 60.1 °F 48.0 °F 64% 30.23 in 10.0 mi Calm Calm - 0.00 in   Mostly Cloudy
7:53 PM 57.9 °F 51.1 °F 78% 30.25 in 10.0 mi Calm Calm - 0.00 in Rain Light Rain
8:53 PM 55.9 °F 52.0 °F 87% 30.27 in 10.0 mi North 3.5 mph - 0.00 in Rain Light Rain
9:53 PM 54.0 °F 48.0 °F 80% 30.28 in 10.0 mi North 5.8 mph - 0.00 in Rain Light Rain
10:53 PM 51.1 °F 48.0 °F 89% 30.30 in 10.0 mi NNE 8.1 mph - 0.00 in Rain Light Rain
11:53 PM 51.1 °F 48.9 °F 92% 30.29 in 5.0 mi NNE 5.8 mph - N/A Rain Rain